• In Spain
  • List of Countries
  • For 7 days
  • Water Temperature
  • Satellite Maps
  • Weather Map
  • Weather Widgets
  • user-avatar
    Login

    Hourly Weather Maloe Kashino

    Today, 22 April, Sunday

    Time Temperature Precipitation Wind Pressure Humidity
    00:00 +3°C° 0 mm 6 mps 727 mmHg 75%
    01:00 +3°C° 0 mm 5 mps 727 mmHg 78%
    02:00 +2°C° 0 mm 5 mps 728 mmHg 80%
    03:00 +3°C° 0.1 mm 4 mps 728 mmHg 81%
    04:00 +3°C° 0.1 mm 4 mps 728 mmHg 81%
    05:00 +3°C° 0.1 mm 4 mps 728 mmHg 82%
    06:00 +3°C° 0.2 mm 4 mps 729 mmHg 80%
    07:00 +3°C° 0.2 mm 4 mps 729 mmHg 78%
    08:00 +3°C° 0.2 mm 4 mps 729 mmHg 75%
    09:00 +4°C° 0.1 mm 4 mps 730 mmHg 72%
    10:00 +4°C° 0.1 mm 4 mps 730 mmHg 69%
    11:00 +3°C° 0.1 mm 5 mps 730 mmHg 66%
    12:00 +3°C° 0 mm 5 mps 731 mmHg 64%
    13:00 +3°C° 0 mm 5 mps 732 mmHg 61%
    14:00 +5°C° 0 mm 5 mps 732 mmHg 59%
    15:00 +3°C° 0 mm 5 mps 733 mmHg 59%
    16:00 +4°C° 0 mm 4 mps 733 mmHg 59%
    17:00 +3°C° 0 mm 4 mps 733 mmHg 58%
    18:00 +3°C° 0 mm 4 mps 734 mmHg 60%
    19:00 +1°C° 0 mm 4 mps 734 mmHg 62%
    20:00 +1°C° 0 mm 3 mps 735 mmHg 63%
    21:00 0°C° 0 mm 3 mps 735 mmHg 65%
    22:00 +1°C° 0 mm 2 mps 736 mmHg 66%
    23:00 -1°C° 0 mm 2 mps 736 mmHg 68%

    Tomorrow, 23 April, Monday

    Time Temperature Precipitation Wind Pressure Humidity
    00:00 -2°C° 0 mm 2 mps 737 mmHg 71%
    01:00 -2°C° 0 mm 2 mps 737 mmHg 74%
    02:00 -3°C° 0 mm 2 mps 738 mmHg 78%
    03:00 -3°C° 0 mm 2 mps 738 mmHg 78%
    04:00 -3°C° 0 mm 2 mps 738 mmHg 79%
    05:00 -3°C° 0 mm 2 mps 739 mmHg 79%
    06:00 -2°C° 0 mm 2 mps 739 mmHg 69%
    07:00 +1°C° 0 mm 2 mps 739 mmHg 59%
    08:00 +1°C° 0 mm 3 mps 739 mmHg 50%
    09:00 +2°C° 0 mm 3 mps 739 mmHg 45%
    10:00 +4°C° 0 mm 2 mps 739 mmHg 40%
    11:00 +6°C° 0 mm 2 mps 739 mmHg 35%
    12:00 +6°C° 0 mm 2 mps 739 mmHg 35%
    13:00 +7°C° 0 mm 2 mps 739 mmHg 34%
    14:00 +7°C° 0 mm 2 mps 739 mmHg 33%
    15:00 +7°C° 0 mm 2 mps 739 mmHg 35%
    16:00 +7°C° 0 mm 2 mps 739 mmHg 37%
    17:00 +7°C° 0 mm 2 mps 738 mmHg 38%
    18:00 +5°C° 0 mm 2 mps 739 mmHg 46%
    19:00 +4°C° 0 mm 1 mps 739 mmHg 53%
    20:00 +2°C° 0 mm 1 mps 739 mmHg 60%
    21:00 +2°C° 0 mm 1 mps 739 mmHg 62%
    22:00 +1°C° 0 mm 1 mps 739 mmHg 64%
    23:00 +1°C° 0 mm 1 mps 738 mmHg 66%

    Day after tomorrow, 24 April, Tuesday

    Time Temperature Precipitation Wind Pressure Humidity
    00:00 +1°C° 0 mm 1 mps 738 mmHg 66%
    01:00 0°C° 0 mm 1 mps 738 mmHg 67%
    02:00 0°C° 0 mm 1 mps 738 mmHg 68%
    03:00 0°C° 0 mm 1 mps 738 mmHg 67%
    04:00 0°C° 0 mm 1 mps 738 mmHg 67%
    05:00 -2°C° 0 mm 2 mps 738 mmHg 66%
    06:00 +1°C° 0 mm 2 mps 738 mmHg 60%
    07:00 +3°C° 0 mm 2 mps 737 mmHg 53%
    08:00 +5°C° 0 mm 2 mps 737 mmHg 47%
    09:00 +7°C° 0 mm 3 mps 737 mmHg 45%
    10:00 +8°C° 0 mm 3 mps 737 mmHg 44%
    11:00 +9°C° 0 mm 3 mps 736 mmHg 42%
    12:00 +10°C° 0 mm 4 mps 736 mmHg 43%
    13:00 +10°C° 0 mm 4 mps 736 mmHg 44%
    14:00 +11°C° 0 mm 4 mps 735 mmHg 45%
    15:00 +10°C° 0.1 mm 4 mps 735 mmHg 52%
    16:00 +9°C° 0.1 mm 3 mps 734 mmHg 59%
    17:00 +9°C° 0.1 mm 3 mps 734 mmHg 66%
    18:00 +8°C° 0.3 mm 3 mps 734 mmHg 73%
    19:00 +7°C° 0.3 mm 3 mps 733 mmHg 81%
    20:00 +6°C° 0.3 mm 2 mps 733 mmHg 89%
    21:00 +6°C° 0.1 mm 2 mps 733 mmHg 91%
    22:00 +6°C° 0.1 mm 2 mps 733 mmHg 93%
    23:00 +6°C° 0.1 mm 2 mps 732 mmHg 96%

    25 April, Wednesday

    Time Temperature Precipitation Wind Pressure Humidity
    00:00 +5°C° 0 mm 2 mps 732 mmHg 96%
    01:00 +5°C° 0 mm 2 mps 732 mmHg 97%
    02:00 +5°C° 0 mm 2 mps 732 mmHg 97%
    03:00 +5°C° 0.2 mm 2 mps 731 mmHg 97%
    04:00 +5°C° 0.2 mm 2 mps 731 mmHg 97%
    05:00 +5°C° 0.2 mm 2 mps 730 mmHg 96%
    06:00 +5°C° 0.2 mm 3 mps 730 mmHg 93%
    07:00 +5°C° 0.2 mm 3 mps 730 mmHg 90%
    08:00 +7°C° 0.2 mm 3 mps 729 mmHg 87%
    09:00 +7°C° 0.4 mm 3 mps 730 mmHg 86%
    10:00 +8°C° 0.4 mm 3 mps 730 mmHg 86%
    11:00 +8°C° 0.4 mm 3 mps 730 mmHg 85%
    12:00 +7°C° 0.2 mm 4 mps 730 mmHg 82%
    13:00 +8°C° 0.2 mm 4 mps 730 mmHg 80%
    14:00 +8°C° 0.2 mm 5 mps 731 mmHg 77%
    15:00 +8°C° 0.1 mm 4 mps 731 mmHg 76%
    16:00 +8°C° 0.1 mm 4 mps 731 mmHg 75%
    17:00 +8°C° 0.1 mm 4 mps 731 mmHg 74%
    18:00 +8°C° 0 mm 3 mps 732 mmHg 80%
    19:00 +7°C° 0 mm 2 mps 732 mmHg 85%
    20:00 +5°C° 0 mm 2 mps 732 mmHg 90%
    21:00 +5°C° 0 mm 2 mps 732 mmHg 91%
    22:00 +5°C° 0 mm 2 mps 732 mmHg 91%
    23:00 +5°C° 0 mm 2 mps 733 mmHg 92%

    26 April, Thursday

    Time Temperature Precipitation Wind Pressure Humidity
    00:00 +5°C° 0 mm 2 mps 732 mmHg 90%
    01:00 +5°C° 0 mm 2 mps 731 mmHg 89%
    02:00 +5°C° 0 mm 3 mps 731 mmHg 87%
    03:00 +5°C° 1 mm 3 mps 730 mmHg 89%
    04:00 +5°C° 1 mm 4 mps 729 mmHg 90%
    05:00 +5°C° 1 mm 5 mps 728 mmHg 91%
    06:00 +5°C° 2.3 mm 4 mps 728 mmHg 92%
    07:00 +6°C° 2.3 mm 4 mps 727 mmHg 93%
    08:00 +7°C° 2.3 mm 4 mps 727 mmHg 94%
    09:00 +8°C° 0.4 mm 4 mps 727 mmHg 90%
    10:00 +10°C° 0.4 mm 4 mps 727 mmHg 85%
    11:00 +12°C° 0.4 mm 5 mps 727 mmHg 81%
    12:00 +12°C° 0.3 mm 5 mps 728 mmHg 77%
    13:00 +11°C° 0.3 mm 6 mps 728 mmHg 72%
    14:00 +11°C° 0.3 mm 6 mps 729 mmHg 68%
    15:00 +11°C° 0.2 mm 6 mps 729 mmHg 70%
    16:00 +10°C° 0.2 mm 5 mps 730 mmHg 72%
    17:00 +10°C° 0.2 mm 5 mps 730 mmHg 74%
    18:00 +8°C° 0.1 mm 5 mps 731 mmHg 78%
    19:00 +7°C° 0.1 mm 4 mps 732 mmHg 83%
    20:00 +7°C° 0.1 mm 3 mps 733 mmHg 87%
    21:00 +5°C° 0 mm 3 mps 733 mmHg 89%
    22:00 +5°C° 0 mm 3 mps 734 mmHg 90%
    23:00 +4°C° 0 mm 3 mps 734 mmHg 92%

    27 April, Friday

    Time Temperature Precipitation Wind Pressure Humidity
    00:00 +4°C° 0 mm 3 mps 735 mmHg 93%
    01:00 +5°C° 0 mm 2 mps 735 mmHg 93%
    02:00 +4°C° 0 mm 2 mps 736 mmHg 94%
    03:00 +4°C° 0 mm 2 mps 736 mmHg 95%
    04:00 +4°C° 0 mm 2 mps 737 mmHg 95%
    05:00 +4°C° 0 mm 2 mps 737 mmHg 96%
    06:00 +5°C° 0 mm 2 mps 737 mmHg 90%
    07:00 +7°C° 0 mm 2 mps 738 mmHg 84%
    08:00 +8°C° 0 mm 2 mps 738 mmHg 77%
    09:00 +9°C° 0 mm 2 mps 738 mmHg 71%
    10:00 +12°C° 0 mm 2 mps 738 mmHg 64%
    11:00 +13°C° 0 mm 2 mps 739 mmHg 58%
    12:00 +13°C° 0 mm 2 mps 739 mmHg 56%
    13:00 +14°C° 0 mm 2 mps 739 mmHg 54%
    14:00 +14°C° 0 mm 2 mps 739 mmHg 53%
    15:00 +14°C° 0 mm 2 mps 739 mmHg 56%
    16:00 +13°C° 0 mm 2 mps 739 mmHg 58%
    17:00 +13°C° 0 mm 2 mps 739 mmHg 61%
    18:00 +12°C° 0 mm 2 mps 739 mmHg 69%
    19:00 +9°C° 0 mm 2 mps 739 mmHg 77%
    20:00 +8°C° 0 mm 1 mps 739 mmHg 85%
    21:00 +8°C° 0 mm 1 mps 739 mmHg 87%
    22:00 +7°C° 0 mm 1 mps 739 mmHg 89%
    23:00 +7°C° 0 mm 1 mps 740 mmHg 91%
    Show more